K0WOI Weather Reports


Display with metric or nautical units.
time (UTC)temp
F
wind
direction
speed
MPH
gust
MPH
rain 1hr
in
rain 24hr
in
rain mn
in
humidity
%
barometer
mb
20260905222736 90 108 0.0 0.0 0.00 0.00 0.00 77 1012.9
20260905222234 90 109 0.0 0.0 0.00 0.00 0.00 76 1012.8
20260905221731 91 110 0.0 0.0 0.00 0.00 0.00 74 1012.8
20260905221227 91 108 0.0 0.0 0.00 0.00 0.00 76 1012.8
20260905220723 91 111 0.0 0.0 0.00 0.00 0.00 76 1012.9
20260905220219 91 109 0.0 0.0 0.00 0.00 0.00 76 1013.0
20260905215718 91 110 0.0 0.0 0.00 0.00 0.00 75 1012.8
20260905215214 91 110 0.0 0.0 0.00 0.00 0.00 75 1012.9
20260905214710 92 110 0.0 0.0 0.00 0.00 0.00 75 1012.9
20260905214205 91 109 0.0 0.0 0.00 0.00 0.00 78 1013.0
20260905213700 92 110 0.0 0.0 0.00 0.00 0.00 74 1012.9
20260905213156 92 114 0.0 0.0 0.00 0.00 0.00 73 1012.8
20260905212651 93 111 0.0 0.0 0.00 0.00 0.00 73 1012.9
20260905212150 93 111 0.0 0.0 0.00 0.00 0.00 73 1013.1
20260905211645 91 115 0.0 0.0 0.00 0.00 0.00 74 1013.0
20260905211140 91 111 0.0 0.0 0.00 0.00 0.00 77 1013.2
20260905210637 90 109 0.0 0.0 0.00 0.00 0.00 79 1013.3
20260905210137 90 109 0.0 0.0 0.00 0.00 0.00 76 1013.2
20260905205636 91 109 0.0 0.0 0.00 0.00 0.00 77 1013.3
20260905205130 91 109 0.0 0.0 0.00 0.00 0.00 75 1013.4
20260905204630 92 108 0.0 0.0 0.00 0.00 0.00 76 1013.4
20260905204125 92 112 0.0 0.0 0.00 0.00 0.00 73 1013.2
20260905203625 91 109 0.0 0.0 0.00 0.00 0.00 75 1013.4
20260905203121 91 111 0.0 0.0 0.00 0.00 0.00 77 1013.4
20260905202616 89 110 0.0 0.0 0.00 0.00 0.00 79 1013.2
20260905202111 89 108 0.0 0.0 0.00 0.00 0.00 82 1013.4
20260905201607 89 109 0.0 0.0 0.00 0.00 0.00 82 1013.3
20260905201106 89 108 0.0 0.0 0.00 0.00 0.00 80 1013.3
20260905200602 89 109 0.0 0.0 0.00 0.00 0.00 81 1013.2
20260905200056 90 111 0.0 0.0 0.00 0.00 0.00 78 1013.4
20260905195550 90 109 0.0 0.0 0.00 0.00 0.00 78 1013.4
20260905195046 90 111 0.0 0.0 0.00 0.00 0.00 77 1013.6
20260905194545 91 112 0.0 0.0 0.00 0.00 0.00 76 1013.7
20260905194044 91 109 0.0 0.0 0.00 0.00 0.00 77 1013.7
20260905193540 91 109 0.0 0.0 0.00 0.00 0.00 74 1014.0
20260905193035 91 110 0.0 0.0 0.00 0.00 0.00 75 1014.2
20260905192530 91 110 0.0 0.0 0.00 0.00 0.00 75 1013.9
20260905192027 90 110 0.0 0.0 0.00 0.00 0.00 77 1014.1
20260905191525 89 111 0.0 0.0 0.00 0.00 0.00 79 1013.9
20260905191024 90 109 0.0 0.0 0.00 0.00 0.00 77 1014.2
20260905190522 89 108 0.0 0.0 0.00 0.00 0.00 82 1014.2
20260905190016 88 106 0.0 0.0 0.00 0.00 0.00 80 1014.3
20260905185516 88 108 0.0 0.0 0.00 0.00 0.00 80 1014.5
20260905185015 88 109 0.0 0.0 0.00 0.00 0.00 80 1015.1
20260905184510 89 111 0.0 0.0 0.00 0.00 0.00 79 1015.0
20260905184009 88 110 0.0 0.0 0.00 0.00 0.00 80 1015.2
20260905183508 88 110 0.0 0.0 0.00 0.00 0.00 79 1015.1
20260905183009 89 108 0.0 0.0 0.00 0.00 0.00 79 1015.2
20260905182503 89 112 0.0 0.0 0.00 0.00 0.00 78 1015.3
20260905181958 89 112 0.0 0.0 0.00 0.00 0.00 78 1015.0
20260905181453 88 110 0.0 0.0 0.00 0.00 0.00 77 1015.3
20260905180951 89 107 0.0 0.0 0.00 0.00 0.00 76 1015.5
20260905180446 89 110 0.0 0.0 0.00 0.00 0.00 77 1015.3
20260905175942 89 108 0.0 0.0 0.00 0.00 0.00 77 1015.2
20260905175441 88 107 0.0 0.0 0.00 0.00 0.00 78 1015.2
20260905174937 88 108 0.0 0.0 0.00 0.00 0.00 79 1015.2
20260905174432 88 108 0.0 0.0 0.00 0.00 0.00 79 1015.4
20260905173927 88 106 0.0 0.0 0.00 0.00 0.00 77 1015.2
20260905173424 87 108 0.0 0.0 0.00 0.00 0.00 79 1015.4
20260905172919 87 110 0.0 0.0 0.00 0.00 0.00 81 1015.5
20260905172417 86 111 0.0 0.0 0.00 0.00 0.00 80 1015.4
20260905171913 85 106 0.0 0.0 0.00 0.00 0.00 83 1015.4
20260905171410 85 108 0.0 0.0 0.00 0.00 0.00 83 1015.5
20260905170906 85 108 0.0 0.0 0.00 0.00 0.00 83 1015.8
20260905170401 85 111 0.0 0.0 0.00 0.00 0.00 84 1015.7
20260905165900 84 110 0.0 0.0 0.00 0.00 0.00 83 1015.6
20260905165356 84 110 0.0 0.0 0.00 0.00 0.00 84 1015.8
20260905164850 83 105 0.0 0.0 0.00 0.00 0.00 84 1015.7
20260905164345 83 119 0.0 0.0 0.00 0.00 0.00 87 1015.3
20260905163840 83 106 0.0 0.0 0.00 0.00 0.00 87 1015.6
20260905163337 83 105 0.0 0.0 0.00 0.00 0.00 88 1015.3
20260905162833 82 104 0.0 0.0 0.00 0.00 0.00 88 1015.7
20260905162327 82 109 0.0 0.0 0.00 0.00 0.00 89 1015.5
20260905161821 82 106 0.0 0.0 0.00 0.00 0.00 89 1015.8
20260905161321 83 108 0.0 0.0 0.00 0.00 0.00 91 1015.9
20260905160819 84 108 0.0 0.0 0.00 0.00 0.00 89 1015.4
20260905160313 84 108 0.0 0.0 0.00 0.00 0.00 88 1015.3
20260905155808 84 108 0.0 0.0 0.00 0.00 0.00 87 1015.4
20260905155301 84 108 0.0 0.0 0.00 0.00 0.00 87 1015.5
20260905154755 84 108 0.0 0.0 0.00 0.00 0.00 86 1015.4
20260905154251 84 108 0.0 0.0 0.00 0.00 0.00 86 1015.3
20260905153746 84 108 0.0 0.0 0.00 0.00 0.00 87 1015.3
20260905153242 83 108 0.0 0.0 0.00 0.00 0.00 86 1015.2
20260905152737 83 108 0.0 0.0 0.00 0.00 0.00 88 1015.0
20260905152237 83 108 0.0 0.0 0.00 0.00 0.00 88 1015.1
20260905151736 83 108 0.0 0.0 0.00 0.00 0.00 89 1015.0
20260905151233 83 108 0.0 0.0 0.00 0.00 0.00 89 1015.0
20260905150732 82 108 0.0 0.0 0.00 0.00 0.00 90 1014.8
20260905150232 82 108 0.0 0.0 0.00 0.00 0.00 92 1014.8
20260905145729 82 108 0.0 0.0 0.00 0.00 0.00 93 1014.5
20260905145224 81 108 0.0 0.0 0.00 0.00 0.00 94 1014.9
20260905144723 81 108 0.0 0.0 0.00 0.00 0.00 94 1014.4
20260905144218 80 108 0.0 0.0 0.00 0.00 0.00 96 1014.4
20260905143717 79 108 0.0 0.0 0.00 0.00 0.00 98 1014.4
20260905143212 78 108 0.0 0.0 0.00 0.00 0.00 99 1014.4
20260905142710 78 108 0.0 0.0 0.00 0.00 0.00 99 1014.3
20260905142205 77 108 0.0 0.0 0.00 0.00 0.00 99 1014.5
20260905141701 77 107 0.0 0.0 0.00 0.00 0.00 99 1014.4
20260905141156 77 107 0.0 0.0 0.00 0.00 0.00 99 1014.7
20260905140651 77 107 0.0 0.0 0.00 0.00 0.00 99 1014.3
20260905140145 77 107 0.0 0.0 0.00 0.00 0.00 99 1014.3
20260905135640 76 107 0.0 0.0 0.00 0.00 0.00 99 1014.3
20260905135136 76 107 0.0 0.0 0.00 0.00 0.00 99 1014.1
20260905134630 76 107 0.0 0.0 0.00 0.00 0.00 99 1014.0
20260905134129 75 107 0.0 0.0 0.00 0.00 0.00 99 1013.7
20260905133624 75 107 0.0 0.0 0.00 0.00 0.00 99 1014.0
20260905133119 75 107 0.0 0.0 0.00 0.00 0.00 99 1013.8
20260905132618 75 107 0.0 0.0 0.00 0.00 0.00 99 1013.7
20260905132113 75 107 0.0 0.0 0.00 0.00 0.00 99 1013.9
20260905131609 74 107 0.0 0.0 0.00 0.00 0.00 99 1013.6
20260905131104 74 107 0.0 0.0 0.00 0.00 0.00 99 1013.7
20260905130603 74 107 0.0 0.0 0.00 0.00 0.00 99 1013.7
20260905130058 74 107 0.0 0.0 0.00 0.00 0.00 99 1013.5
20260905125557 74 107 0.0 0.0 0.00 0.00 0.00 99 1013.4
20260905125053 73 107 0.0 0.0 0.00 0.00 0.00 99 1013.5
20260905124550 73 107 0.0 0.0 0.00 0.00 0.00 99 1013.5
20260905124045 73 107 0.0 0.0 0.00 0.00 0.00 99 1013.4
20260905123540 73 107 0.0 0.0 0.00 0.00 0.00 99 1013.4
20260905123038 72 107 0.0 0.0 0.00 0.00 0.00 99 1013.3
20260905122537 72 107 0.0 0.0 0.00 0.00 0.00 99 1013.5
20260905122032 72 107 0.0 0.0 0.00 0.00 0.00 99 1013.4
20260905121532 72 107 0.0 0.0 0.00 0.00 0.00 99 1013.2
20260905121027 72 108 0.0 0.0 0.00 0.00 0.00 99 1013.3
20260905120521 72 108 0.0 0.0 0.00 0.00 0.00 99 1013.2
20260905120017 72 108 0.0 0.0 0.00 0.00 0.00 99 1013.1
20260905115515 72 108 0.0 0.0 0.00 0.00 0.00 99 1013.0
20260905115010 72 108 0.0 0.0 0.00 0.00 0.00 99 1013.4
20260905114509 72 108 0.0 0.0 0.00 0.00 0.00 99 1013.3
20260905114009 72 108 0.0 0.0 0.00 0.00 0.00 99 1013.1
20260905113504 72 108 0.0 0.0 0.00 0.00 0.00 99 1013.2
20260905112959 72 108 0.0 0.0 0.00 0.00 0.00 99 1013.0
20260905112454 72 108 0.0 0.0 0.00 0.00 0.00 99 1013.0
20260905111944 72 108 0.0 0.0 0.00 0.00 0.00 99 1013.0
20260905111443 72 108 0.0 0.0 0.00 0.00 0.00 99 1012.8
20260905110938 72 108 0.0 0.0 0.00 0.00 0.00 99 1012.6
20260905110432 72 108 0.0 0.0 0.00 0.00 0.00 99 1012.7
20260905105932 72 108 0.0 0.0 0.00 0.00 0.00 99 1012.7
20260905105426 72 108 0.0 0.0 0.00 0.00 0.00 99 1013.0
20260905104925 72 108 0.0 0.0 0.00 0.00 0.00 99 1012.8
20260905104422 72 108 0.0 0.0 0.00 0.00 0.00 99 1013.0
20260905103916 72 108 0.0 0.0 0.00 0.00 0.00 99 1013.0
20260905103412 72 108 0.0 0.0 0.00 0.00 0.00 99 1012.9
20260905102907 72 108 0.0 0.0 0.00 0.00 0.00 99 1013.0
20260905102404 72 108 0.0 0.0 0.00 0.00 0.00 99 1012.9
20260905101904 72 108 0.0 0.0 0.00 0.00 0.00 99 1012.9
20260905101402 73 108 0.0 0.0 0.00 0.00 0.00 99 1012.8
20260905100857 73 108 0.0 0.0 0.00 0.00 0.00 99 1012.7
20260905100353 73 108 0.0 0.0 0.00 0.00 0.00 99 1012.8
20260905095852 74 108 0.0 0.0 0.00 0.00 0.00 99 1012.6
20260905095347 73 108 0.0 0.0 0.00 0.00 0.00 99 1012.6
20260905094841 73 108 0.0 0.0 0.00 0.00 0.00 99 1012.3
20260905094337 73 108 0.0 0.0 0.00 0.00 0.00 99 1012.3
20260905093836 73 108 0.0 0.0 0.00 0.00 0.00 99 1012.5
20260905093332 73 108 0.0 0.0 0.00 0.00 0.00 99 1012.2
20260905092828 73 108 0.0 0.0 0.00 0.00 0.00 99 1012.2
20260905092327 73 108 0.0 0.0 0.00 0.00 0.00 99 1012.2
20260905091822 73 108 0.0 0.0 0.00 0.00 0.00 99 1012.2
20260905091322 73 108 0.0 0.0 0.00 0.00 0.00 99 1012.6
20260905090821 73 108 0.0 0.0 0.00 0.00 0.00 99 1012.4
20260905090317 73 108 0.0 0.0 0.00 0.00 0.00 99 1012.3
20260905085811 73 108 0.0 0.0 0.00 0.00 0.00 99 1012.6
20260905085311 73 108 0.0 0.0 0.00 0.00 0.00 99 1012.7
20260905084806 73 108 0.0 0.0 0.00 0.00 0.00 99 1012.5
20260905084306 73 108 0.0 0.0 0.00 0.00 0.00 99 1012.7
20260905083801 73 108 0.0 0.0 0.00 0.00 0.00 99 1012.6
20260905083256 73 108 0.0 0.0 0.00 0.00 0.00 99 1012.4
20260905082752 73 108 0.0 0.0 0.00 0.00 0.00 99 1012.4
20260905082248 73 108 0.0 0.0 0.00 0.00 0.00 99 1012.5
20260905081742 73 108 0.0 0.0 0.00 0.00 0.00 99 1012.5
20260905081237 73 108 0.0 0.0 0.00 0.00 0.00 99 1012.6
20260905080737 73 108 0.0 0.0 0.00 0.00 0.00 99 1012.8
20260905080237 74 108 0.0 0.0 0.00 0.00 0.00 99 1012.7
20260905075736 74 108 0.0 0.0 0.00 0.00 0.00 99 1012.6
20260905075235 74 108 0.0 0.0 0.00 0.00 0.00 99 1012.6
20260905074734 74 108 0.0 0.0 0.00 0.00 0.00 99 1012.7
20260905074230 74 108 0.0 0.0 0.00 0.00 0.00 99 1012.7
20260905073725 74 108 0.0 0.0 0.00 0.00 0.00 99 1012.5
20260905073221 74 108 0.0 0.0 0.00 0.00 0.00 99 1012.7
20260905072720 74 107 0.0 0.0 0.00 0.00 0.00 99 1012.7
20260905072215 74 107 0.0 0.0 0.00 0.00 0.00 99 1012.7
20260905071712 74 107 0.0 0.0 0.00 0.00 0.00 99 1012.7
20260905071208 75 107 0.0 0.0 0.00 0.00 0.00 99 1012.9
20260905070702 74 107 0.0 0.0 0.00 0.00 0.00 99 1012.9
20260905070158 74 107 0.0 0.0 0.00 0.00 0.00 99 1012.9
20260905065657 74 107 0.0 0.0 0.00 0.00 0.00 99 1012.7
20260905065151 74 107 0.0 0.0 0.00 0.00 0.00 99 1012.7
20260905064647 74 107 0.0 0.0 0.00 0.00 0.00 99 1012.8
20260905064143 75 107 0.0 0.0 0.00 0.00 0.00 99 1012.9
20260905063640 75 107 0.0 0.0 0.00 0.00 0.00 99 1012.9
20260905063138 75 107 0.0 0.0 0.00 0.00 0.00 99 1013.0
20260905062633 75 107 0.0 0.0 0.00 0.00 0.00 99 1012.8
20260905062132 75 107 0.0 0.0 0.00 0.00 0.00 99 1012.7
20260905061627 75 107 0.0 0.0 0.00 0.00 0.00 99 1012.6
20260905061126 75 106 0.0 0.0 0.00 0.00 0.00 99 1012.9
20260905060622 75 106 0.0 0.0 0.00 0.00 0.00 99 1012.8
20260905060119 75 105 0.0 0.0 0.00 0.00 0.00 99 1012.8
20260905055617 75 105 0.0 0.0 0.00 0.00 0.00 99 1013.0
20260905055112 76 105 0.0 0.0 0.00 0.00 0.00 99 1013.1
20260905054608 75 105 0.0 0.0 0.00 0.00 0.00 99 1012.7
20260905054103 76 105 0.0 0.0 0.00 0.00 0.00 99 1013.0
20260905053603 76 105 0.0 0.0 0.00 0.00 0.00 99 1012.8
20260905053058 76 105 0.0 0.0 0.00 0.00 0.00 99 1012.8
20260905052557 76 105 0.0 0.0 0.00 0.00 0.00 99 1012.7
20260905052052 76 106 0.0 0.0 0.00 0.00 0.00 99 1012.6
20260905051547 76 106 0.0 0.0 0.00 0.00 0.00 99 1012.5
20260905051044 76 106 0.0 0.0 0.00 0.00 0.00 99 1012.7
20260905050540 76 106 0.0 0.0 0.00 0.00 0.00 99 1012.7
20260905050031 76 106 0.0 0.0 0.00 0.00 0.00 99 1012.4
20260905045526 76 106 0.0 0.0 0.00 0.00 0.00 99 1012.4
20260905045021 76 106 0.0 0.0 0.00 0.00 0.00 99 1012.3
20260905044521 76 104 0.0 0.0 0.00 0.00 0.00 99 1012.5
20260905044021 76 104 0.0 0.0 0.00 0.00 0.00 99 1012.3
20260905043520 76 103 0.0 0.0 0.00 0.00 0.00 99 1012.3
20260905043010 76 103 0.0 0.0 0.00 0.00 0.00 99 1012.3
20260905042509 76 103 0.0 0.0 0.00 0.00 0.00 99 1012.4
20260905042004 77 103 0.0 0.0 0.00 0.00 0.00 99 1012.4
20260905041500 77 103 0.0 0.0 0.00 0.00 0.00 99 1012.4
20260905040955 77 103 0.0 0.0 0.00 0.00 0.00 99 1012.2
20260905040454 77 103 0.0 0.0 0.00 0.00 0.00 99 1012.0
20260905035953 77 102 0.0 0.0 0.00 0.00 0.00 99 1012.0
20260905035448 77 102 0.0 0.0 0.00 0.00 0.00 99 1012.1
20260905034946 77 102 0.0 0.0 0.00 0.00 0.00 99 1012.2
20260905034441 77 102 0.0 0.0 0.00 0.00 0.00 99 1012.1
20260905033940 77 102 0.0 0.0 0.00 0.00 0.00 99 1012.3
20260905033440 78 102 0.0 0.0 0.00 0.00 0.00 99 1012.5
20260905032934 78 102 0.0 0.0 0.00 0.00 0.00 99 1012.2
20260905032430 78 102 0.0 0.0 0.00 0.00 0.00 99 1012.3
20260905031925 78 102 0.0 0.0 0.00 0.00 0.00 99 1012.4
20260905031421 78 102 0.0 0.0 0.00 0.00 0.00 99 1012.4
20260905030916 78 102 0.0 0.0 0.00 0.00 0.00 99 1012.2
20260905030411 78 105 0.0 0.0 0.00 0.00 0.00 99 1012.2
20260905025910 78 105 0.0 0.0 0.00 0.00 0.00 99 1012.8
20260905025405 79 105 0.0 0.0 0.00 0.00 0.00 98 1012.5
20260905024902 78 105 0.0 0.0 0.00 0.00 0.00 98 1012.4
20260905024356 79 105 0.0 0.0 0.00 0.00 0.00 98 1012.5
20260905023852 78 105 0.0 0.0 0.00 0.00 0.00 98 1012.4
20260905023347 78 105 0.0 0.0 0.00 0.00 0.00 98 1012.2
20260905022846 79 105 0.0 0.0 0.00 0.00 0.00 98 1012.2
20260905022342 79 105 0.0 0.0 0.00 0.00 0.00 98 1012.2
20260905021836 79 105 0.0 0.0 0.00 0.00 0.00 98 1012.2
20260905021331 79 105 0.0 0.0 0.00 0.00 0.00 97 1012.0
20260905020826 79 105 0.0 0.0 0.00 0.00 0.00 97 1012.2
20260905020321 79 105 0.0 0.0 0.00 0.00 0.00 97 1012.0
20260905015820 80 105 0.0 0.0 0.00 0.00 0.00 97 1012.1
20260905015320 80 105 0.0 0.0 0.00 0.00 0.00 96 1011.9
20260905014819 80 105 0.0 0.0 0.00 0.00 0.00 96 1011.9
20260905014315 80 105 0.0 0.0 0.00 0.00 0.00 96 1011.7
20260905013810 80 105 0.0 0.0 0.00 0.00 0.00 96 1011.7
20260905013306 80 105 0.0 0.0 0.00 0.00 0.00 96 1011.9
20260905012801 81 105 0.0 0.0 0.00 0.00 0.00 95 1011.5
20260905012256 81 105 0.0 0.0 0.00 0.00 0.00 95 1011.5
20260905011753 81 105 0.0 0.0 0.00 0.00 0.00 94 1011.4
20260905011249 82 105 0.0 0.0 0.00 0.00 0.00 93 1011.3
20260905010743 82 105 0.0 0.0 0.00 0.00 0.00 92 1011.5
20260905010239 82 105 0.0 0.0 0.00 0.00 0.00 91 1011.3
20260905005736 83 105 0.0 0.0 0.00 0.00 0.00 91 1011.3
20260905005231 83 105 0.0 0.0 0.00 0.00 0.00 90 1011.4
20260905004730 84 105 0.0 0.0 0.00 0.00 0.00 89 1011.2
20260905004226 84 105 0.0 0.0 0.00 0.00 0.00 87 1011.4
20260905003720 85 105 0.0 0.0 0.00 0.00 0.00 86 1011.5
20260905003216 86 105 0.0 0.0 0.00 0.00 0.00 85 1011.4
20260905002712 86 105 0.0 0.0 0.00 0.00 0.00 82 1011.5
20260905002211 86 105 0.0 0.0 0.00 0.00 0.00 82 1011.3
20260905001707 87 105 0.0 0.0 0.00 0.00 0.00 82 1011.5
20260905001206 87 105 0.0 0.0 0.00 0.00 0.00 81 1011.3
20260905000701 88 105 0.0 0.0 0.00 0.00 0.00 80 1011.0
20260905000157 88 106 0.0 0.0 0.00 0.00 0.00 79 1011.5
20260904235657 89 106 0.0 0.0 0.00 0.00 0.00 78 1011.3
20260904235157 90 107 0.0 0.0 0.00 0.00 0.00 77 1011.3
20260904234652 90 107 0.0 0.0 0.00 0.00 0.00 75 1011.3
20260904234148 90 108 0.0 0.0 0.00 0.00 0.00 74 1011.0
20260904233643 91 108 0.0 0.0 0.00 0.00 0.00 73 1011.4
20260904233139 91 109 0.0 0.0 0.00 0.00 0.00 72 1011.4
20260904232635 91 110 0.0 0.0 0.00 0.00 0.00 73 1011.2
20260904232131 91 110 0.0 0.0 0.00 0.00 0.00 69 1011.0
20260904231626 92 109 0.0 0.0 0.00 0.00 0.00 69 1011.2
20260904231121 92 112 0.0 0.0 0.00 0.00 0.00 68 1011.2
20260904230621 93 110 0.0 0.0 0.00 0.00 0.00 67 1010.9
20260904230116 93 113 0.0 0.0 0.00 0.00 0.00 65 1011.2
20260904225613 93 112 0.0 0.0 0.00 0.00 0.00 65 1011.0
20260904225109 93 111 0.0 0.0 0.00 0.00 0.00 65 1010.9
20260904224603 94 111 0.0 0.0 0.00 0.00 0.00 63 1010.9
20260904224058 93 117 0.0 0.0 0.00 0.00 0.00 64 1010.9
20260904223557 93 114 0.0 0.0 0.00 0.00 0.00 66 1010.9
20260904223053 93 111 0.0 0.0 0.00 0.00 0.00 67 1010.8